Theta_e
307 307 306 307 307 307 307 307 308 308 308 308 308 308 307 302 300 304 305 302 303 303 302 306 310 318 322 325 327 321 321 321 321 322 320 324 324 325 325 326 327 329 331 330 334
305 306 307 306 307 306 307 307 307 308 308 308 308 308 307 304 306 305 306 307 305 303 310 309 309 318 325 322 328 328 327 323 321 321 323 322 324 326 326 327 327 328 329 327 329
306 306 306 306 306 306 306 306 307 307 308 308 308 308 307 306 303 301 314 311 302 308 310 312 313 318 320 319 326 329 331 326 323 321 322 323 323 324 325 326 327 327 328 327 327
305 306 306 306 306 306 307 307 307 308 308 308 307 307 307 304 302 308 315 307 304 304 313 317 313 312 318 321 321 324 326 328 328 325 325 323 324 325 325 326 326 327 327 327 327
304 305 304 305 304 302 304 306 307 310 310 308 308 307 305 306 305 303 307 307 307 307 307 316 313 311 314 317 322 324 322 324 326 328 329 330 332 331 331 330 330 331 330 329 329
304 304 304 300 300 302 305 306 306 307 310 310 308 307 306 305 304 307 309 308 307 306 306 310 316 311 313 314 317 321 323 323 324 328 329 330 329 330 329 329 329 328 328 327 327
304 304 303 300 300 303 306 306 306 307 307 306 309 308 307 307 305 307 309 309 308 306 307 305 306 314 311 311 313 315 318 318 322 325 327 326 329 329 327 326 326 326 326 327 327
304 304 303 300 302 305 306 307 306 306 307 307 310 308 309 305 306 307 308 308 307 306 306 305 304 307 314 313 313 314 315 318 319 316 320 323 327 327 325 325 325 325 326 326 327
304 304 304 301 303 306 306 306 306 306 308 309 309 308 310 306 307 307 307 308 307 306 305 306 306 307 311 313 313 315 316 318 318 318 318 320 324 323 323 323 326 327 327 326 326
303 304 305 302 304 306 305 305 305 310 310 309 310 308 307 307 306 306 307 307 307 307 307 307 308 308 310 314 316 314 315 316 317 318 318 319 321 321 322 322 324 324 324 324 325
303 303 304 300 303 306 306 306 307 307 306 306 306 306 306 306 306 307 307 307 307 308 309 307 307 308 309 312 313 314 315 316 316 318 319 320 321 321 321 321 321 322 323 324 324
302 302 302 300 304 306 306 307 307 306 308 306 305 305 305 305 307 307 306 307 306 307 307 307 307 307 307 308 311 312 313 314 314 315 317 319 320 319 318 319 320 321 322 323 323
300 304 302 300 305 306 306 306 307 306 307 307 306 306 307 307 307 306 307 306 306 307 307 309 308 306 308 308 310 312 313 314 314 315 315 316 318 319 319 318 319 319 319 320 321
298 304 304 300 305 305 306 306 306 304 308 306 307 307 307 307 307 306 307 307 307 307 306 307 308 305 306 307 309 311 310 312 313 315 318 316 319 318 318 318 318 318 318 319 320
299 304 305 303 304 306 306 306 305 303 305 305 307 307 307 307 307 306 307 307 309 309 308 309 308 308 306 307 307 309 309 310 310 312 313 315 315 316 317 317 317 317 317 318 318
299 304 304 303 304 306 306 306 304 307 305 306 307 307 307 307 307 306 307 308 310 312 311 311 310 309 306 306 307 308 308 310 311 312 313 313 314 316 316 316 316 316 316 316 317
301 304 302 304 306 306 307 304 306 307 306 307 307 307 307 308 307 306 307 309 312 312 311 311 312 310 308 306 306 306 309 310 310 312 313 312 312 314 315 315 315 316 316 317 318
304 307 305 306 307 307 303 304 305 304 307 307 308 308 308 307 307 306 307 308 311 312 314 317 313 313 309 309 306 306 307 309 308 311 311 310 312 313 314 315 316 316 317 318 320
305 308 307 308 308 306 306 309 308 307 307 308 309 308 307 307 307 307 308 309 310 312 312 313 314 310 312 310 307 306 307 308 308 310 310 311 311 312 313 314 314 315 317 320 321
304 306 306 306 306 305 309 309 307 306 308 308 310 308 309 309 308 309 308 309 309 310 311 312 314 312 311 310 307 308 308 307 307 310 310 311 312 313 315 315 316 317 317 318 320
304 310 306 306 305 308 311 308 307 307 308 309 309 309 309 310 308 309 308 307 309 310 310 311 313 311 311 312 309 308 309 308 308 309 310 312 314 315 315 316 317 317 317 318 319
302 310 305 304 310 302 308 305 305 307 308 309 309 310 310 309 309 309 308 308 308 309 310 311 313 313 311 310 310 310 310 310 311 309 309 310 311 313 315 315 316 316 316 318 321
304 305 304 302 309 306 305 305 306 308 307 308 308 309 309 310 311 310 309 308 308 309 310 311 311 310 309 311 311 310 310 310 310 312 314 312 310 312 313 314 314 316 316 317 320
304 308 304 302 301 304 304 305 305 305 307 308 309 308 309 311 308 311 310 308 308 309 310 311 311 310 311 310 310 312 311 310 313 313 311 312 313 313 313 313 314 315 316 316 318
300 303 302 305 302 301 303 304 305 307 307 306 309 309 308 310 308 308 309 308 308 309 310 310 311 311 310 311 311 311 311 310 311 312 313 311 311 311 312 314 315 314 315 315 317
301 303 302 302 301 304 304 305 306 307 305 306 308 307 308 309 308 309 308 309 312 310 310 311 311 311 311 309 310 310 310 309 310 311 312 312 312 311 312 312 313 314 315 316 320
298 297 301 303 302 303 304 304 304 303 305 306 306 307 309 308 307 307 307 308 308 310 310 311 311 311 309 309 311 311 310 311 311 311 311 312 311 311 311 312 313 315 319 321 326
Wind_Speed
17 18 17 18 18 19 20 20 19 18 18 18 18 19 22 23 25 17 6 5 5 12 15 11 7 4 6 6 6 4 7 13 19 14 10 2 6 3 3 5 2 1 2 5 5
17 18 19 19 20 20 21 21 20 19 18 17 18 19 19 20 18 11 5 5 6 9 7 6 6 12 5 8 8 10 11 20 11 15 8 13 7 4 4 4 3 4 7 6 5
17 18 18 18 18 19 19 20 20 20 18 17 17 17 18 16 5 2 11 10 14 10 8 3 5 8 15 8 13 11 20 20 17 18 13 20 17 8 8 12 12 8 1 7 10
19 19 20 20 20 19 18 17 17 17 17 16 16 15 15 7 5 3 10 18 14 14 1 3 6 8 11 18 16 15 21 22 15 11 8 17 15 13 16 22 13 13 11 12 14
20 20 21 22 23 22 19 17 18 17 15 13 11 9 7 3 6 4 13 16 14 8 2 4 10 11 16 12 18 25 23 14 22 15 13 11 21 19 20 20 19 20 18 19 18
21 22 22 23 22 21 17 18 20 19 13 8 6 2 3 5 6 11 10 9 10 4 1 2 4 10 9 15 21 13 20 22 16 15 15 18 28 18 16 14 18 14 18 19 17
24 23 23 23 20 19 15 16 17 10 11 7 3 4 2 9 6 13 12 8 7 4 1 7 9 8 3 12 12 18 19 13 18 23 16 6 24 36 22 19 24 23 22 21 19
24 24 24 22 20 19 16 15 14 9 7 6 6 3 6 8 15 16 11 11 7 5 3 6 7 6 8 9 9 11 17 22 26 11 9 15 31 34 17 21 26 25 23 21 18
25 25 24 21 19 18 18 17 13 5 3 6 5 1 8 13 9 11 10 8 10 5 3 3 4 6 6 13 10 14 21 26 24 22 15 19 35 27 17 15 18 16 15 15 15
25 26 24 20 18 16 19 13 6 4 3 2 3 3 4 11 16 20 11 12 6 6 4 3 5 9 12 13 20 18 24 21 18 13 22 24 34 23 17 16 18 17 17 19 19
24 24 24 17 16 12 18 3 4 1 3 3 7 5 14 14 17 7 8 5 6 5 4 4 9 17 19 19 21 10 13 19 18 9 21 25 28 24 19 22 24 24 21 21 21
26 25 24 15 13 4 9 5 4 3 8 5 10 9 17 9 6 11 6 2 3 11 6 4 14 14 12 13 17 22 18 10 8 9 8 16 21 16 15 19 20 21 22 23 22
28 26 23 15 6 3 2 6 2 3 4 7 5 5 6 11 6 10 2 2 6 9 9 11 12 9 13 17 17 18 22 20 10 6 12 12 22 23 22 20 21 23 22 23 20
31 26 20 14 2 4 2 4 12 10 2 3 3 1 8 15 4 16 5 7 4 8 9 12 13 8 15 14 19 19 11 15 20 12 13 4 11 16 17 18 19 19 20 21 20
33 27 19 7 5 2 0 8 0 5 4 8 3 4 15 5 10 6 9 3 10 14 7 21 14 16 16 17 15 18 11 9 5 9 11 18 10 16 12 20 19 16 20 21 22
36 24 9 1 4 2 8 6 4 2 3 4 6 13 18 11 9 8 11 8 8 9 11 20 16 17 17 11 13 13 16 21 17 13 15 16 12 23 17 21 18 17 15 13 16
33 12 3 4 1 7 11 2 2 2 4 4 8 12 19 6 13 13 18 11 5 6 10 15 16 15 17 13 9 9 12 9 10 11 17 11 13 23 9 6 1 8 15 15 11
24 5 3 4 9 11 4 1 3 1 4 7 9 18 4 8 12 15 11 10 4 4 6 6 8 13 5 22 17 15 14 7 15 12 15 13 13 9 10 16 12 8 7 10 12
16 4 4 9 4 7 2 0 2 1 5 8 15 5 3 5 9 9 13 7 4 2 5 6 5 10 11 9 18 12 10 16 5 1 8 10 17 16 16 14 12 12 8 13 17
10 4 5 8 5 3 2 2 2 3 8 5 4 3 7 12 9 11 7 4 6 3 1 4 8 1 12 11 13 14 10 9 7 6 8 9 15 9 3 9 9 12 14 17 17
5 0 7 6 3 3 2 3 4 5 7 3 5 8 9 8 7 9 6 13 3 7 8 7 4 4 5 7 3 7 7 8 9 12 4 3 3 4 7 9 8 12 17 18 18
6 1 10 4 2 1 1 6 6 6 2 4 5 8 7 9 9 7 9 6 10 7 13 3 4 7 6 6 6 3 4 7 8 20 11 10 5 6 9 8 13 17 20 19 17
4 3 7 5 2 2 4 5 4 5 7 4 4 2 3 4 6 8 10 5 10 9 3 7 1 7 6 5 4 3 3 5 6 6 15 14 9 10 8 14 15 19 21 20 20
3 3 3 4 1 2 4 3 5 6 10 4 9 9 5 5 12 9 14 10 10 11 16 13 4 8 9 8 7 9 11 10 6 9 14 19 20 24 22 23 23 19 20 21 20
3 2 2 4 2 7 4 4 8 5 3 8 3 6 8 6 15 15 12 13 17 21 9 4 7 11 15 15 15 17 18 17 16 18 13 18 20 22 19 17 22 21 21 22 21
3 3 2 4 7 6 3 3 8 4 5 9 7 13 16 16 16 22 18 16 6 5 3 6 7 8 15 14 15 20 20 20 23 21 24 25 24 19 23 23 24 22 20 21 18
1 1 2 3 3 4 2 3 7 14 10 11 14 15 16 18 15 21 21 22 16 6 5 3 3 3 7 6 5 11 21 22 21 21 17 22 21 18 24 22 20 21 19 20 18
Wind_Direction
360 357 354 349 344 339 335 334 332 332 334 332 334 331 329 329 324 319 267 262 285 299 300 301 269 241 207 212 192 151 228 238 233 221 231 266 240 211 323 263 282 227 113 14 82
357 353 348 345 341 336 333 331 329 329 328 328 327 326 324 333 318 297 356 0 1 334 305 253 227 196 208 208 198 198 221 230 227 224 232 243 237 280 300 277 263 246 142 46 60
352 348 344 340 336 332 331 328 327 325 322 323 321 321 323 332 291 183 103 6 5 340 253 232 226 220 221 206 205 209 231 228 234 228 233 254 258 251 261 265 252 254 302 321 328
350 346 343 340 337 333 330 327 323 319 319 317 315 320 325 343 351 53 242 322 341 358 282 203 202 206 222 219 213 235 231 238 242 235 231 245 266 250 241 252 277 279 296 292 288
348 346 344 342 341 345 345 340 333 321 312 303 300 319 336 314 258 312 321 322 337 339 325 261 217 218 226 224 226 233 233 239 244 243 245 272 262 264 258 262 267 274 276 273 268
345 345 345 346 348 351 346 350 348 338 325 305 285 294 352 312 302 328 335 7 21 39 271 227 243 239 258 242 224 235 236 240 242 235 242 248 265 258 247 256 270 271 268 266 265
345 345 345 349 352 352 348 348 350 2 3 359 193 186 236 247 301 311 302 290 314 352 309 235 245 251 305 251 253 253 253 242 234 233 240 226 276 254 250 248 257 262 261 262 266
343 343 342 347 352 351 345 342 334 325 355 18 137 151 259 292 307 317 301 289 267 291 235 243 231 285 233 299 257 232 235 243 233 203 226 193 252 258 261 259 258 259 267 274 269
341 340 338 343 349 349 347 334 324 326 32 106 115 110 288 318 319 327 305 281 293 235 224 164 155 221 215 231 246 224 234 228 239 218 216 197 245 252 257 262 261 264 269 271 275
340 337 337 340 348 351 350 335 47 94 83 112 101 265 253 332 325 311 297 271 273 280 142 171 198 222 219 208 221 231 235 247 240 222 218 223 246 250 246 268 263 268 272 274 272
339 336 335 341 349 359 7 49 5 241 18 279 287 274 282 300 310 293 306 271 253 244 246 209 225 224 231 233 248 255 280 251 248 223 223 228 246 248 245 251 260 262 266 268 268
340 338 334 337 342 0 35 70 90 302 310 286 259 247 268 268 285 324 329 298 274 257 174 221 251 263 255 251 242 247 250 258 265 243 244 247 256 257 257 255 259 264 265 268 275
345 337 333 335 341 14 86 149 350 277 250 296 252 262 309 319 284 315 294 296 268 260 244 246 266 284 241 243 242 237 240 236 252 287 270 271 269 264 255 251 258 258 262 267 266
346 334 328 333 158 343 201 193 318 174 272 290 327 137 345 322 244 325 204 313 242 267 257 246 250 240 244 247 239 242 225 234 235 246 246 228 276 258 256 249 245 256 260 263 266
346 332 320 305 288 228 218 316 240 179 302 338 312 334 332 329 299 343 326 311 275 272 267 269 276 250 245 232 225 242 222 203 206 240 265 250 275 268 250 260 262 264 262 266 266
346 335 317 245 215 255 329 325 160 219 263 344 326 336 339 336 317 308 328 311 279 269 252 264 267 251 227 250 213 229 221 222 239 247 249 241 236 276 259 262 267 262 265 286 288
347 356 52 154 357 333 339 142 246 223 350 342 329 332 328 308 327 328 327 325 320 299 291 304 269 237 232 230 222 215 178 182 209 214 237 216 214 244 14 151 166 303 296 310 308
349 6 53 17 321 314 349 220 244 1 294 318 325 316 305 351 333 330 317 324 63 27 291 316 295 351 207 223 223 222 206 210 213 209 226 192 228 236 234 265 274 290 290 313 324
353 23 56 354 2 350 325 77 213 241 309 317 321 313 310 331 328 328 317 295 338 25 349 307 278 281 290 265 218 195 215 233 300 311 220 195 245 271 262 278 284 304 324 345 341
351 2 20 351 346 5 62 291 259 240 320 300 288 266 294 321 325 335 314 283 327 8 279 298 295 230 294 291 220 211 205 200 210 220 216 210 236 239 175 153 51 22 1 338 332
14 96 2 344 0 48 58 289 296 299 335 271 276 283 292 308 309 307 270 292 287 340 320 292 263 313 320 343 310 182 206 224 241 237 267 247 176 225 193 89 33 3 355 345 341
350 294 356 26 47 46 357 320 311 291 312 281 263 272 271 305 295 275 264 274 321 327 321 329 295 291 272 197 250 309 281 277 235 222 242 273 280 92 114 58 6 352 349 347 342
349 295 353 359 55 1 326 299 272 284 318 300 294 279 311 278 303 256 281 287 339 309 304 352 290 316 311 148 162 268 294 259 264 269 251 241 235 232 286 303 335 338 339 339 340
340 334 1 45 47 19 331 328 320 324 300 268 296 286 279 278 287 280 282 295 301 296 293 318 246 253 268 300 314 293 291 284 285 257 258 246 260 272 287 299 313 322 329 327 332
11 39 9 320 359 320 303 281 287 307 295 315 265 238 313 282 303 270 270 299 290 287 278 261 259 242 255 268 283 280 280 279 268 257 256 262 252 265 280 300 304 309 311 315 319
6 354 0 293 296 300 277 250 291 330 310 296 260 295 297 291 284 287 291 283 246 302 241 234 259 279 267 264 259 269 270 266 258 259 258 261 266 273 280 281 282 292 302 303 306
345 183 210 281 304 309 281 316 304 322 291 249 296 297 286 287 295 286 281 277 258 239 247 241 234 271 263 247 285 272 251 244 254 253 257 252 258 259 270 271 279 290 295 293 297